עמוד ראשי
METAR-TAF:

METAR-TAF

שדות תעופה :

Kinloss, סקוטלנד

קו רוחב: 57-39N, קו אורך: 003-34W, גובה: 7מטר

תצפית מזג אוויר נוכחית

הדו"ח נערך לפני 24דקות, בשעה 08:20 UTC
רוח 5קשר מכיוון מערב
טמפרטורת 16 צלסיוס
לחות 72%
לחץ 1006 hPa
ראות 10 קילומטר או יותר

METAR: EGQK 270820Z AUTO 26005KT 9999 FEW023/// BKN075/// 16/11 Q1006

זמן: 09:44 (08:44 UTC)


TAF: חסר

תצפיות ותחזיות מזג אוויר לגבי יותר מ- 4,000 שדות תעופה ברחבי העולם. דוחות METAR ו- TAF.

התחנות הזמינות מסומנות בנקודות צהובות ואדומות על גבי המפה.

העבר את העכבר לנקודה הצבעונית על מנת לראות את שם התחנה.

לאחר מכן, לחץ כדי לראות את תוכן ואת תחזיות מזג האוויר.

כדי לשנות את המפה: לחץ על הכפתורים הירוקים עם הפלוס השחור כדי להתקרב; על הכפתור הירוק עם המקף כדי להתרחק; או בחיצים הירוקים למפות סמוכות.


METAR-TAF: